Zaragoza, Spain

3:25 PM CET on February 22, 2017 (GMT +0100)
Zaragoza

Weather History for LEZG - October, 2012

Change the Weather History Date:

Saturday, October 27, 2012

  Actual Average Record
Temperature  
Mean Temperature 52 °F -  
Max Temperature 62 °F 57 °F 86 °F (2002)
Min Temperature 42 °F 42 °F 37 °F (2010)
Degree Days  
Heating Degree Days 13    
Growing Degree Days 2 (Base 50)    
Moisture  
Dew Point 44 °F    
Average Humidity 68    
Maximum Humidity 88    
Minimum Humidity 40    
Precipitation  
Precipitation 0.00 in 0.05 in - ()
Sea Level Pressure  
Sea Level Pressure 29.66 in    
Wind  
Wind Speed 16 mph ()    
Max Wind Speed 37 mph    
Max Gust Speed 52 mph    
Visibility 6.6 miles    
Events      
Averages and records for this station are not official NWS values.
T = Trace of Precipitation, MM = Missing Value Source: Averaged Metar Reports

Daily Weather History Graph

Daily Weather History Graph

Search for Another Location

Airport or City:

Trip Planner

Search our weather history database for the weather conditions in past years. The results will help you decide how hot, cold, wet, or windy it might be!

Date:

Astronomy

Oct. 27, 2012 Rise Set
Actual Time 8:30 AM CEST 7:04 PM CEST
Civil Twilight 8:01 AM CEST 7:33 PM CEST
Nautical Twilight 7:29 AM CEST 8:05 PM CEST
Astronomical Twilight 6:56 AM CEST 8:38 PM CEST
Moon 5:44 PM CEST (10/27) 6:09 AM CEST (10/27)
Length of Visible Light 11h 31m
Length of Day
10h 34m
Waxing Gibbous, 95% of the Moon is Illuminated
Oct 27
Waxing Gibbous
Oct 29
Full
Nov 7
Last Quarter
Nov 13
New
Nov 20
First Quarter

Hourly Weather History & Observations

Time (CEST) Temp. Windchill Dew Point Humidity Pressure Visibility Wind Dir Wind Speed Gust Speed Precip Events Conditions
12:00 AM 60.8 °F - 55.4 °F 82% 29.50 in 6.2 mi West 10.4 mph - N/A   Scattered Clouds
12:30 AM 60.8 °F - 55.4 °F 82% 29.50 in 6.2 mi West 11.5 mph - N/A   Scattered Clouds
1:00 AM 59.0 °F - 55.4 °F 88% 29.50 in 6.2 mi West 9.2 mph - N/A   Scattered Clouds
1:30 AM 59.0 °F - 55.4 °F 88% 29.50 in 6.2 mi West 8.1 mph - N/A   Scattered Clouds
2:00 AM 60 °F - 55 °F 78% 29.51 in 9 mi WNW 9.2 mph - -   Partly Cloudy
2:00 AM 59.0 °F - 53.6 °F 82% 29.50 in 6.2 mi WNW 8.1 mph 19.6 mph N/A   Scattered Clouds
2:30 AM 60.8 °F - 51.8 °F 72% 29.50 in 6.2 mi West 12.7 mph - N/A   Scattered Clouds
3:00 AM 59.0 °F - 51.8 °F 77% 29.50 in 6.2 mi West 11.5 mph - N/A   Scattered Clouds
3:30 AM 57.2 °F - 51.8 °F 82% 29.50 in 6.2 mi West 8.1 mph - N/A   Scattered Clouds
4:00 AM 57.2 °F - 50.0 °F 77% 29.50 in 6.2 mi West 9.2 mph - N/A   Scattered Clouds
5:30 AM 57.2 °F - 51.8 °F 82% 29.50 in 6.2 mi WNW 8.1 mph - N/A   Scattered Clouds
6:30 AM 57.2 °F - 50.0 °F 77% 29.50 in 6.2 mi WNW 12.7 mph - N/A   Partly Cloudy
7:00 AM 57.2 °F - 50.0 °F 77% 29.50 in 6.2 mi WNW 13.8 mph - N/A   Partly Cloudy
7:30 AM 57.2 °F - 51.8 °F 82% 29.50 in 6.2 mi WNW 17.3 mph - N/A   Partly Cloudy
8:00 AM 58 °F - 52 °F 73%  in 9 mi WNW 16.1 mph - -   Partly Cloudy
8:00 AM 57.2 °F - 51.8 °F 82% 29.50 in 6.2 mi WNW 15.0 mph - N/A   Scattered Clouds
8:30 AM 57.2 °F - 51.8 °F 82% 29.50 in 6.2 mi WNW 18.4 mph - N/A   Scattered Clouds
9:00 AM 57.2 °F - 51.8 °F 82% 29.53 in 6.2 mi WNW 20.7 mph - N/A   Partly Cloudy
9:30 AM 57.2 °F - 51.8 °F 82% 29.53 in 6.2 mi WNW 20.7 mph - N/A   Partly Cloudy
10:00 AM 59.0 °F - 51.8 °F 77% 29.56 in 6.2 mi WNW 21.9 mph - N/A   Partly Cloudy
10:30 AM 60.8 °F - 53.6 °F 77% 29.56 in 6.2 mi WNW 24.2 mph - N/A   Partly Cloudy
11:00 AM 60.8 °F - 51.8 °F 72% 29.59 in 6.2 mi WNW 24.2 mph - N/A   Partly Cloudy
11:30 AM 60.8 °F - 51.8 °F 72% 29.59 in 6.2 mi WNW 21.9 mph - N/A   Scattered Clouds
12:00 PM 60.8 °F - 48.2 °F 63% 29.59 in 6.2 mi WNW 25.3 mph - N/A   Partly Cloudy
12:30 PM 60.8 °F - 48.2 °F 63% 29.62 in 6.2 mi NW 26.5 mph 43.7 mph N/A   Scattered Clouds
1:00 PM 60.8 °F - 46.4 °F 59% 29.65 in 6.2 mi NW 33.4 mph - N/A   Scattered Clouds
2:00 PM 60 °F - 44 °F 45% 29.68 in 25 mi NW 27.6 mph - -   Mostly Cloudy
2:00 PM 57.2 °F - 44.6 °F 63% 29.68 in 6.2 mi NW 29.9 mph 43.7 mph N/A   Mostly Cloudy
2:30 PM 55.4 °F - 39.2 °F 54% 29.71 in 6.2 mi NW 31.1 mph 43.7 mph N/A   Partly Cloudy
3:00 PM 53.6 °F - 33.8 °F 47% 29.71 in 6.2 mi WNW 36.8 mph 50.6 mph N/A   Partly Cloudy
3:30 PM 53.6 °F - 32.0 °F 44% 29.71 in 6.2 mi NW 36.8 mph 51.8 mph N/A   Partly Cloudy
4:00 PM 53.6 °F - 33.8 °F 47% 29.71 in 6.2 mi WNW 32.2 mph 43.7 mph N/A   Partly Cloudy
4:30 PM 53.6 °F - 32.0 °F 44% 29.74 in 6.2 mi WNW 31.1 mph 42.6 mph N/A   Partly Cloudy
5:00 PM 53.6 °F - 32.0 °F 44% 29.74 in 6.2 mi NW 28.8 mph 40.3 mph N/A   Partly Cloudy
5:30 PM 51.8 °F - 32.0 °F 47% 29.77 in 6.2 mi NW 27.6 mph 39.1 mph N/A   Partly Cloudy
6:00 PM 51.8 °F - 33.8 °F 50% 29.77 in 6.2 mi NW 28.8 mph 42.6 mph N/A   Partly Cloudy
6:30 PM 50.0 °F - 35.6 °F 58% 29.77 in 6.2 mi NW 27.6 mph 39.1 mph N/A   Partly Cloudy
7:00 PM 48.2 °F - 33.8 °F 58% 29.80 in 6.2 mi NW 25.3 mph 36.8 mph N/A   Partly Cloudy
7:30 PM 46.4 °F 38.3 °F 33.8 °F 62% 29.83 in 6.2 mi WNW 23.0 mph - N/A   Partly Cloudy
8:00 PM 49 °F - 32 °F 40% 29.86 in 19 mi WNW 20.7 mph - -   Scattered Clouds
8:00 PM 46.4 °F 38.5 °F 35.6 °F 66% 29.86 in 6.2 mi WNW 21.9 mph - N/A   Partly Cloudy
8:30 PM 44.6 °F 36.9 °F 33.8 °F 66% 29.86 in 6.2 mi WNW 18.4 mph - N/A   Partly Cloudy
9:00 PM 42.8 °F 33.5 °F 33.8 °F 70% 29.86 in 6.2 mi WNW 23.0 mph - N/A   Partly Cloudy
9:30 PM 42.8 °F 32.9 °F 33.8 °F 70% 29.89 in 6.2 mi WNW 26.5 mph - N/A   Partly Cloudy
10:00 PM 42.8 °F 33.3 °F 32.0 °F 66% 29.89 in 6.2 mi WNW 24.2 mph - N/A   Partly Cloudy
10:30 PM 42.8 °F 34.5 °F 32.0 °F 66% 29.92 in 6.2 mi WNW 18.4 mph - N/A   Partly Cloudy
11:00 PM 42.8 °F 33.3 °F 32.0 °F 66% 29.92 in 6.2 mi WNW 24.2 mph - N/A   Partly Cloudy
11:30 PM 42.8 °F 33.3 °F 33.8 °F 70% 29.92 in 6.2 mi WNW 24.2 mph 36.8 mph N/A   Partly Cloudy